TimeICT,TemperatureF,Dew PointF,Humidity,Sea Level PressureIn,VisibilityMPH,Wind Direction,Wind SpeedMPH,Gust SpeedMPH,PrecipitationIn,Events,Conditions,WindDirDegrees,DateUTC
12:00 AM,78.8,77.0,94,29.83,5.0,Calm,Calm,-,N/A,,Mostly Cloudy,0,2012-10-03 17:00:00
12:30 AM,78.8,77.0,94,29.83,4.3,Calm,Calm,-,N/A,,Mostly Cloudy,0,2012-10-03 17:30:00
1:00 AM,78.8,75.2,89,29.80,4.3,Calm,Calm,-,N/A,,Mostly Cloudy,0,2012-10-03 18:00:00
1:30 AM,78.8,75.2,89,29.80,4.3,Calm,Calm,-,N/A,,Mostly Cloudy,0,2012-10-03 18:30:00
2:00 AM,78.8,75.2,89,29.77,4.3,North,3.5,-,N/A,,Mostly Cloudy,360,2012-10-03 19:00:00
2:30 AM,78.8,75.2,89,29.77,4.3,NW,6.9,-,N/A,,Mostly Cloudy,320,2012-10-03 19:30:00
3:00 AM,78.8,75.2,89,29.77,4.3,NNW,9.2,-,N/A,Thunderstorm,Thunderstorm,340,2012-10-03 20:00:00
3:30 AM,78.8,77.0,94,29.77,3.1,NNE,3.5,-,N/A,Rain-Thunderstorm,Light Thunderstorms and Rain,20,2012-10-03 20:30:00
4:00 AM,78.8,77.0,94,29.77,3.1,NE,3.5,-,N/A,Rain-Thunderstorm,Light Thunderstorms and Rain,50,2012-10-03 21:00:00
4:30 AM,78.8,77.0,94,29.77,3.1,NNE,5.8,-,N/A,Rain-Thunderstorm,Light Thunderstorms and Rain,30,2012-10-03 21:30:00
5:30 AM,78.8,77.0,94,29.77,3.7,Calm,Calm,-,N/A,Rain,Light Rain,0,2012-10-03 22:30:00
6:00 AM,78.8,77.0,94,29.77,4.3,Calm,Calm,-,N/A,Rain,Light Rain,0,2012-10-03 23:00:00
6:30 AM,78.8,77.0,94,29.77,3.7,Calm,Calm,-,N/A,,Mostly Cloudy,0,2012-10-03 23:30:00
7:00 AM,78.8,77.0,94,29.80,5.0,Calm,Calm,-,N/A,,Mostly Cloudy,0,2012-10-04 00:00:00
7:30 AM,78.8,77.0,94,29.80,5.6,Calm,Calm,-,N/A,,Mostly Cloudy,0,2012-10-04 00:30:00
8:00 AM,78.8,77.0,94,29.83,6.2,Calm,Calm,-,N/A,,Mostly Cloudy,0,2012-10-04 01:00:00
8:30 AM,78.8,73.4,83,29.80,6.2,Calm,Calm,-,N/A,,Mostly Cloudy,0,2012-10-04 01:30:00
9:00 AM,82.4,73.4,74,29.83,6.2,Calm,Calm,-,N/A,,Mostly Cloudy,0,2012-10-04 02:00:00
9:30 AM,84.2,73.4,70,29.83,6.2,Calm,Calm,-,N/A,,Mostly Cloudy,0,2012-10-04 02:30:00
10:00 AM,86.0,75.2,70,29.83,6.2,NNW,3.5,-,N/A,,Mostly Cloudy,330,2012-10-04 03:00:00
10:30 AM,84.2,73.4,70,29.83,6.2,South,4.6,-,N/A,,Mostly Cloudy,170,2012-10-04 03:30:00
11:00 AM,84.2,75.2,74,29.83,6.2,South,6.9,-,N/A,,Mostly Cloudy,180,2012-10-04 04:00:00
11:30 AM,80.6,77.0,89,29.83,5.6,SE,4.6,-,N/A,,Mostly Cloudy,140,2012-10-04 04:30:00
12:00 PM,82.4,75.2,79,29.80,6.2,East,4.6,-,N/A,,Mostly Cloudy,100,2012-10-04 05:00:00
12:30 PM,86.0,77.0,74,29.80,6.2,East,4.6,-,N/A,,Mostly Cloudy,100,2012-10-04 05:30:00
1:00 PM,86.0,73.4,66,29.77,6.2,WSW,4.6,-,N/A,,Mostly Cloudy,240,2012-10-04 06:00:00
1:30 PM,87.8,75.2,66,29.77,6.2,WSW,6.9,-,N/A,,Mostly Cloudy,250,2012-10-04 06:30:00
2:00 PM,87.8,75.2,66,29.74,6.2,SW,6.9,-,N/A,,Mostly Cloudy,220,2012-10-04 07:00:00
2:30 PM,87.8,75.2,66,29.74,6.2,SW,6.9,-,N/A,,Mostly Cloudy,230,2012-10-04 07:30:00
3:00 PM,87.8,73.4,62,29.71,6.2,WSW,9.2,-,N/A,Thunderstorm,Mostly Cloudy,240,2012-10-04 08:00:00
3:30 PM,84.2,73.4,70,29.71,6.2,SW,6.9,-,N/A,Thunderstorm,Mostly Cloudy,230,2012-10-04 08:30:00
4:00 PM,84.2,73.4,70,29.71,6.2,West,4.6,-,N/A,,Mostly Cloudy,260,2012-10-04 09:00:00
4:30 PM,84.2,73.4,70,29.71,6.2,West,6.9,-,N/A,,Mostly Cloudy,280,2012-10-04 09:30:00
5:00 PM,84.2,71.6,66,29.71,6.2,West,4.6,-,N/A,,Mostly Cloudy,260,2012-10-04 10:00:00
5:30 PM,84.2,71.6,66,29.74,6.2,WSW,4.6,-,N/A,,Mostly Cloudy,240,2012-10-04 10:30:00
6:00 PM,84.2,71.6,66,29.74,6.2,West,4.6,-,N/A,,Mostly Cloudy,260,2012-10-04 11:00:00
6:30 PM,82.4,73.4,74,29.74,6.2,Calm,Calm,-,N/A,,Mostly Cloudy,0,2012-10-04 11:30:00
7:00 PM,82.4,73.4,74,29.74,6.2,Calm,Calm,-,N/A,,Mostly Cloudy,0,2012-10-04 12:00:00
7:30 PM,82.4,73.4,74,29.77,6.2,Calm,Calm,-,N/A,,Mostly Cloudy,0,2012-10-04 12:30:00
8:00 PM,82.4,75.2,79,29.77,6.2,Calm,Calm,-,N/A,,Mostly Cloudy,0,2012-10-04 13:00:00
8:30 PM,82.4,75.2,79,29.77,6.2,Calm,Calm,-,N/A,,Mostly Cloudy,0,2012-10-04 13:30:00
9:00 PM,80.6,75.2,84,29.80,6.2,Calm,Calm,-,N/A,,Mostly Cloudy,0,2012-10-04 14:00:00
9:30 PM,80.6,75.2,84,29.80,6.2,Calm,Calm,-,N/A,,Mostly Cloudy,0,2012-10-04 14:30:00
10:00 PM,80.6,75.2,84,29.80,6.2,Calm,Calm,-,N/A,,Mostly Cloudy,0,2012-10-04 15:00:00
10:30 PM,80.6,73.4,79,29.83,6.2,Calm,Calm,-,N/A,,Mostly Cloudy,0,2012-10-04 15:30:00
11:00 PM,78.8,75.2,89,29.83,6.2,Calm,Calm,-,N/A,,Mostly Cloudy,0,2012-10-04 16:00:00
11:30 PM,80.6,75.2,84,29.83,6.2,Calm,Calm,-,N/A,,Mostly Cloudy,0,2012-10-04 16:30:00